NOAA 16 DEB, 41424

Orbit data source: Space-Track

NOAA 16 DEB, 41424 is space debris in SSO originally from a launch on Thu, 21 Sep 2000 UTC launched from the Air Force Western Test Range (AFWTR). Debris objects in space refer to the collection of defunct objects orbiting the Earth. Examples of debris include non-operational satellites, rocket bodies, and fragments generated from explosions, collisions, or faulty payload assembly.

Loading next visibility...
Identifier
41424, 2000-055LD
Orbit
SSO
Country
Flag of USUS
Related business
Manufacturer
Unknown
Mission
Spacecraft
Bus & Motor
Unknown
Mass
Unknown
Launch date (UTC)
2000-09-21 (25 years ago)
Launch vehicle
Unknown
Launch site
Air Force Western Test Range (AFWTR)
Object type
Payload
Rocket body
Debris
Shape & HBR
Unknown shape, 0.1 m
Radar Cross Section
Small (<0.1 m²)

Expand to show TLE details & history
Last TLE update: 8 hours ago

TLE from 8 hours ago
0 NOAA 16 DEB
1 41424U 00055LD  26038.38926882  .00009282  00000-0  29981-2 0  9992
2 41424  98.9483 189.9905 0024347 179.7838 180.3363 14.39174183516155
Epoch: 2026-02-07T09:20Z
TLE epoch observation values (Epoch: 2026-02-07T09:20:32.826Z)
Latitude
0.00001°
Longitude
-87.65977°
Altitude
781.547 km
Speed
7.454 km/s
True Right ascension
12h 39m 57s
True Declination
0° 00' 00"
Sunlit
Object was in full shadow at epoch
Visualization orbit readout
Latitude
Unknown
Longitude
Unknown
Altitude
Unknown
Speed
Unknown
Apparent Right ascension
Unknown
Apparent Declination
Unknown
Sunlit
N/A
Visualization observer readout
Local Sidereal Time
19:10:38
Azimuth
Unknown
Elevation
Unknown
Doppler factor
Unknown
Orbital elements
Apogee altitude
775.748 km
Perigee altitude
740.998 km
Semi-major axis
7,136.51 km
Eccentricity
0.00243
Inclination
98.9483°
RAAN
189.9905°
Arg. of periapsis
179.7838°
True anomaly
180.33467°
Mean anomaly
180.3363°
Eccentric anomaly
180.33548°
Mean motion
3.6001 °/min
Orbital period
100 mins
BSTAR
0.0029981
Loading maneuver chart data...
Computing Atmospheric mass density...
Loading historical data...
Loading historical data...
Loading historical data...
Loading historical data...
Loading historical data...
Loading historical data...
Loading historical data...

Documentation

Showing up to 5 results
|